CZ-6A DEB, 54894

Orbit data source: Space-Track

CZ-6A DEB, 54894 is space debris in SSO originally from a launch on Fri, 11 Nov 2022 UTC launched from the Taiyaun Space Center, China (TSC). Debris objects in space refer to the collection of defunct objects orbiting the Earth. Examples of debris include non-operational satellites, rocket bodies, and fragments generated from explosions, collisions, or faulty payload assembly.

Loading next visibility...
Identifier
54894, 2022-151QF
Orbit
SSO
Country
Flag of CNCN / PRC
Related business
Manufacturer
SAST
Mission
Spacecraft
Bus & Motor
Unknown
Mass
Unknown
Launch date (UTC)
2022-11-11 (4 years ago)
Launch vehicle
Unknown
Launch site
Taiyaun Space Center, China (TSC)
Object type
Payload
Rocket body
Debris
Shape & HBR
Unknown shape, 0.1 m
Radar Cross Section
Small (<0.1 m²)

Expand to show TLE details & history
Last TLE update: 2 days ago

TLE from 2 days ago
0 CZ-6A DEB
1 54894U 22151QF  26171.15805018  .00022154  00000-0  21571-2 0  9998
2 54894  98.6157 253.8217 0053575 210.0135 149.8007 14.91441582188390
Epoch: 2026-06-20T03:47Z
TLE epoch observation values (Epoch: 2026-06-20T03:47:35.535Z)
Latitude
-0.00007°
Longitude
-71.45305°
Altitude
628.793 km
Speed
7.527 km/s
True Right ascension
16h 55m 17s
True Declination
0° 00' 00"
Sunlit
Object was in full shadow at epoch
Visualization orbit readout
Latitude
Unknown
Longitude
Unknown
Altitude
Unknown
Speed
Unknown
Apparent Right ascension
Unknown
Apparent Declination
Unknown
Sunlit
N/A
Visualization observer readout
Local Sidereal Time
21:34:49
Azimuth
Unknown
Elevation
Unknown
Doppler factor
Unknown
Orbital elements
Apogee altitude
627.833 km
Perigee altitude
553.164 km
Semi-major axis
6,968.636 km
Eccentricity
0.00536
Inclination
98.6157°
RAAN
253.8217°
Arg. of periapsis
210.0135°
True anomaly
150.10773°
Mean anomaly
149.8007°
Eccentric anomaly
149.95439°
Mean motion
3.73097 °/min
Orbital period
96.49 mins
BSTAR
0.0021571
Loading maneuver chart data...
Computing Atmospheric mass density...
Loading historical data...
Loading historical data...
Loading historical data...
Loading historical data...
Loading historical data...
Loading historical data...
Loading historical data...

Documentation

Showing up to 5 results
|